Dewpoint
67 61 60 57 50 46 42 44 46 48 46 45 44 42 40 38 34 39 42 37 37 29 29 32 48 50 51 51 52 52 53 53 54 55 56 58 58 61 61 61 60 59 58 59 61 65 68 68 69
65 55 53 49 46 42 40 40 41 43 46 42 35 39 36 30 38 32 34 33 24 21 26 29 46 47 48 49 49 50 50 51 52 53 53 54 55 57 58 59 60 61 59 58 57 58 62 66 68
58 47 48 42 39 40 39 35 35 40 44 41 34 32 32 32 36 34 27 23 21 21 25 29 44 45 46 47 47 48 48 49 50 51 51 52 52 54 54 56 57 58 59 58 57 56 58 58 63
52 48 41 39 36 35 34 31 32 37 33 35 34 30 32 28 32 23 21 19 19 20 22 31 43 44 45 46 46 47 47 48 48 48 49 50 50 51 51 52 53 53 55 57 57 56 55 56 57
48 44 38 36 34 31 27 28 32 32 31 30 31 25 17 19 21 19 19 17 18 19 21 20 42 43 44 44 45 45 46 47 48 48 48 48 48 48 50 49 48 49 51 54 57 59 56 56 56
47 42 37 35 33 27 22 23 22 23 23 24 24 15 14 18 18 18 17 16 16 18 22 22 35 41 42 43 44 45 46 47 48 48 48 48 48 48 47 46 45 46 48 50 53 55 59 57 56
44 41 37 35 33 31 25 19 19 18 18 16 24 15 15 12 17 16 16 17 18 19 21 22 24 29 37 40 43 44 44 46 46 47 47 46 45 45 46 44 44 43 45 48 50 51 54 58 59
44 41 36 35 33 28 21 18 17 17 15 18 16 11 10 13 15 16 16 17 20 21 21 22 23 23 26 27 39 42 43 45 45 44 44 43 44 42 41 43 40 43 45 46 46 49 51 53 55
41 39 35 35 34 23 19 15 16 15 11 11 13 10 11 13 15 16 17 17 21 21 22 22 23 24 26 28 31 40 43 43 42 40 41 38 31 32 34 40 43 43 44 45 44 45 47 49 51
39 36 30 26 27 23 20 18 16 11 11 8 7 8 10 12 13 14 16 18 19 20 22 24 27 26 31 32 35 35 33 34 35 34 33 32 32 32 35 39 42 43 43 43 43 42 43 42 35
30 29 25 23 23 21 18 16 16 12 10 8 7 8 11 13 14 14 15 16 18 20 24 28 30 32 35 35 36 36 36 37 37 36 36 35 33 33 33 34 34 35 38 33 33 33 33 34 34
26 27 25 23 21 18 16 15 9 10 10 7 9 10 11 12 13 14 15 16 18 20 24 28 32 34 35 36 35 35 36 37 37 37 37 36 35 34 34 34 35 35 35 34 34 35 34 33 33
25 23 19 19 17 16 14 12 7 7 7 7 9 11 12 12 14 14 15 16 19 20 25 28 32 36 35 36 38 37 37 37 37 37 38 37 36 35 35 34 34 34 34 34 34 34 34 32 31
20 18 15 15 14 13 13 13 8 5 6 7 9 10 11 12 13 14 15 16 18 21 27 29 32 36 37 35 37 38 38 38 39 39 39 38 37 36 35 35 35 35 35 35 35 34 34 34 33
19 16 17 16 15 13 14 7 4 5 5 7 8 9 11 12 14 14 15 16 19 23 29 32 34 35 36 36 37 37 38 40 40 40 39 39 38 37 36 36 36 36 36 37 36 35 35 35 32
22 21 20 17 15 15 17 5 4 4 5 7 8 9 11 12 13 15 17 17 20 25 30 32 32 33 36 32 34 36 37 40 40 40 40 40 40 40 39 38 37 37 37 37 37 36 35 34 33
17 15 19 18 19 17 15 5 3 4 5 7 8 9 11 12 14 16 17 18 21 27 30 29 30 30 32 30 33 35 38 39 40 40 40 40 41 41 41 40 39 38 38 37 37 36 36 34 33
10 10 16 17 16 13 8 2 2 3 5 6 8 9 11 12 15 17 17 19 24 30 30 30 30 29 29 31 33 36 37 39 40 40 41 41 41 41 41 41 41 40 39 38 37 36 36 35 34
11 10 9 14 16 13 5 2 2 2 4 5 7 9 10 13 17 17 18 20 28 30 30 29 29 29 30 32 33 34 35 36 37 40 41 41 41 42 42 41 41 41 40 39 38 37 35 35 35
10 6 13 16 16 8 1 1 2 1 4 5 7 9 11 14 17 17 18 21 29 28 28 28 28 29 30 33 33 33 34 36 37 40 39 41 42 42 41 40 41 42 42 40 39 37 36 35 35
10 8 5 3 16 13 5 9 0 2 4 5 7 10 12 15 17 17 18 22 29 27 28 29 28 28 28 30 32 33 35 37 37 38 39 41 41 42 42 41 41 42 42 41 41 39 37 35 35
5 9 6 12 13 8 15 10 2 2 2 3 7 9 12 16 18 17 19 25 28 28 30 28 27 29 29 30 32 34 36 36 37 38 40 40 41 41 41 41 40 41 42 42 42 41 39 37 35
3 8 12 16 13 14 14 12 3 2 1 3 7 10 12 17 17 18 20 26 28 29 28 28 30 32 32 33 33 35 35 35 37 39 39 39 40 41 41 41 41 42 42 42 42 41 40 39 36
6 13 15 16 14 8 8 10 -0 2 2 6 9 11 12 16 17 18 21 27 29 29 29 31 30 29 31 32 33 35 36 35 36 38 39 39 40 41 41 41 42 42 42 43 43 42 41 40 39
4 3 1 -4 -3 -3 3 2 0 4 7 9 11 12 14 16 18 19 21 29 30 28 29 30 31 32 33 30 33 34 35 36 36 37 39 38 38 39 40 42 43 42 41 42 43 41 40 40 39
-2 -2 -2 -2 -10 -5 5 1 -1 6 8 11 13 15 15 17 18 20 22 29 29 28 28 29 30 31 32 33 34 34 34 35 36 36 38 37 37 39 40 41 41 41 40 40 40 42 42 42 41
-8 -3 2 -1 5 -1 -3 -2 2 7 6 11 13 15 15 17 19 20 22 29 28 27 28 28 31 31 31 33 35 33 34 34 35 35 37 37 37 37 38 39 41 41 41 40 40 41 40 39 40
-3 2 -9 1 4 -5 -17 -11 -7 1 5 11 13 15 15 18 19 20 25 29 28 27 28 29 31 32 32 33 34 32 33 34 34 35 35 35 35 36 36 38 38 41 40 40 40 40 39 39 41
-3 -6 5 3 -1 -4 -11 -18 1 4 8 12 14 16 16 18 19 20 27 28 28 27 28 30 31 32 33 34 33 32 33 33 34 34 34 34 34 34 35 36 37 39 39 40 40 39 38 39 39
4 1 -5 13 6 4 5 -1 5 7 9 13 16 16 16 19 20 21 27 27 26 27 28 30 31 33 33 33 33 32 33 33 33 33 33 34 33 34 34 35 37 39 40 40 40 38 38 37 37
Lifted_Index
1 2 1 0 -0 0 0 0 0 0 1 1 2 2 2 3 4 8 14 17 18 19 20 19 17 15 15 14 14 14 14 13 12 12 11 10 9 8 7 6 6 6 6 5 3 2 1 0 -0
2 2 2 1 0 1 1 1 1 1 1 2 2 2 2 4 7 11 15 17 18 19 20 19 17 16 15 15 15 14 14 13 13 12 12 11 10 9 8 8 7 7 6 5 4 3 2 1 1
3 3 2 2 2 2 2 2 2 2 3 3 3 4 5 7 11 14 17 18 19 19 20 20 18 17 16 16 15 15 15 14 14 13 13 12 12 11 10 9 9 8 8 7 6 5 4 3 2
3 3 3 2 3 3 2 2 3 3 4 5 5 6 8 12 15 17 18 19 20 20 21 20 19 18 17 17 16 16 15 15 14 13 13 13 13 12 12 11 11 11 10 8 7 7 6 5 4
3 3 3 3 3 3 3 3 4 4 5 6 7 7 11 15 18 19 19 20 20 20 21 20 19 18 18 17 17 16 16 15 14 14 14 14 13 13 13 13 13 13 12 10 9 8 7 7 6
4 4 4 4 4 4 4 5 5 6 6 8 8 10 12 16 18 19 19 20 20 20 20 20 20 19 18 18 18 17 16 15 15 14 14 14 14 14 14 15 15 15 13 12 10 9 8 7 7
4 4 5 4 4 4 4 6 6 6 7 9 11 11 13 17 19 19 19 19 20 20 20 20 20 20 19 19 18 18 17 16 16 15 15 15 15 16 16 16 16 16 14 13 12 10 9 8 7
4 4 5 4 4 4 5 6 8 9 9 12 13 13 15 17 19 19 19 19 19 19 19 19 19 19 19 18 18 18 18 17 17 17 17 17 17 18 18 17 17 16 15 14 13 12 11 9 8
5 4 4 4 4 5 5 6 9 11 12 13 15 16 17 19 19 19 19 19 18 18 18 18 18 18 17 17 17 17 18 18 18 18 18 18 18 19 18 18 17 17 16 15 15 14 13 12 11
5 5 5 5 5 5 6 7 9 11 12 13 15 17 19 19 19 19 18 18 18 18 17 17 16 16 16 16 16 16 16 16 16 16 16 17 17 17 17 17 17 16 16 15 16 15 15 15 14
6 6 6 6 7 7 8 9 10 10 11 13 16 18 19 19 18 18 18 18 18 17 16 16 15 15 15 15 15 14 14 14 13 13 14 15 15 16 16 16 16 16 16 16 16 16 16 15 15
8 8 8 8 9 9 9 10 11 12 14 16 18 19 19 18 18 18 18 18 17 15 15 14 15 14 14 14 14 14 13 13 13 13 14 14 15 15 15 16 16 16 16 16 16 15 15 15 15
9 9 9 10 10 10 11 11 11 14 17 19 19 19 18 18 18 18 18 17 15 14 13 13 13 13 13 13 14 14 14 14 14 15 15 15 15 16 16 16 16 16 16 15 15 15 15 15 14
10 10 10 10 11 11 11 11 12 16 19 19 19 18 18 18 18 18 16 15 13 12 12 11 12 12 13 13 14 14 14 14 14 15 15 16 16 16 16 16 16 15 15 15 15 15 15 15 14
10 9 9 10 10 11 11 10 13 17 19 19 18 17 17 17 17 16 14 12 11 11 11 11 12 13 13 14 14 15 15 14 14 15 15 15 16 16 16 16 16 16 15 15 15 15 15 15 15
9 8 8 9 10 11 10 10 13 17 18 17 17 16 16 16 15 14 12 11 11 11 12 12 13 14 14 15 15 15 15 14 15 15 15 15 15 16 16 16 16 15 15 15 15 14 14 14 14
7 6 6 8 10 11 10 10 13 16 17 17 16 15 15 15 13 12 11 11 11 12 13 13 14 15 15 15 15 15 15 15 15 15 15 15 15 15 15 15 15 15 15 15 14 14 14 14 14
5 5 5 7 9 10 10 10 12 15 16 16 15 14 14 13 12 11 11 11 12 13 13 14 15 15 15 15 15 15 15 14 14 14 15 15 15 15 15 14 14 14 14 14 14 13 13 13 13
6 5 5 7 9 10 9 9 11 14 15 15 14 14 13 12 11 11 11 12 13 14 14 15 15 15 15 15 15 15 14 14 14 14 14 14 14 14 14 14 13 13 13 13 13 13 13 13 13
6 5 5 7 9 10 8 8 10 13 14 14 14 14 13 12 11 10 11 13 14 14 15 15 15 15 15 15 15 15 14 14 14 13 13 13 12 13 13 12 12 12 12 12 12 12 12 12 12
5 5 5 6 7 8 8 7 9 12 13 14 14 14 13 12 11 10 11 13 14 14 15 15 15 15 15 15 15 15 14 14 14 13 13 12 12 12 12 11 11 11 11 11 11 11 11 12 12
5 6 6 6 6 6 6 5 7 10 12 13 13 13 13 12 11 10 11 13 14 15 15 15 15 15 15 15 15 14 14 14 14 14 13 12 12 12 11 11 11 11 10 10 10 10 11 11 12
7 7 7 6 5 5 5 5 7 9 11 12 13 13 13 12 11 11 12 14 15 15 15 15 15 15 15 15 15 14 14 14 14 13 13 12 12 11 11 11 11 10 10 10 10 10 11 11 12
8 7 6 5 4 4 5 6 7 9 11 12 13 13 13 12 11 11 12 14 15 15 15 15 16 15 15 15 14 13 13 14 13 13 12 11 11 10 10 10 10 10 10 9 9 10 10 11 11
7 5 3 2 2 3 5 6 7 10 13 14 13 13 13 12 10 11 12 14 14 15 15 15 16 16 15 14 14 13 13 13 12 12 11 10 10 10 9 9 9 9 9 9 9 9 10 10 10
6 5 3 2 1 2 4 6 8 12 14 14 13 13 13 11 10 11 13 14 14 15 15 16 16 15 15 14 13 13 12 12 11 10 10 9 9 9 8 8 8 8 8 8 9 9 9 9 9
6 6 5 3 2 2 4 6 9 12 13 13 13 12 12 11 10 11 13 14 15 15 15 16 16 15 15 14 13 13 12 12 11 10 9 8 8 8 8 7 7 7 8 8 8 8 8 8 8
7 7 5 4 2 2 3 5 8 11 13 13 12 12 12 11 10 11 13 15 15 15 16 16 16 15 15 14 14 13 12 12 11 10 9 8 8 8 7 7 7 7 7 7 7 8 8 8 8
7 7 6 4 3 2 2 5 9 12 13 14 13 13 13 11 10 11 13 15 15 15 16 16 15 15 15 14 14 13 13 12 11 10 9 9 8 7 7 6 6 6 6 6 7 7 7 7 7
7 7 6 4 3 4 4 6 10 13 15 15 14 14 13 11 10 11 13 15 15 15 15 15 15 15 14 14 14 13 13 12 12 11 10 9 8 7 7 6 6 6 6 6 6 7 7 7 7